Lid_Strength_Index
9 10 10 9 9 8 7 6 6 6 6 6 6 6 6 6 6 5 5 5 4 3
10 10 10 10 9 9 8 7 7 7 7 7 7 6 7 7 7 7 6 6 6 5
10 10 10 10 10 9 9 8 8 8 8 8 8 8 8 8 8 8 7 7 7 7
9 9 9 10 10 10 9 9 9 8 8 8 8 8 8 8 8 8 8 7 7 7
9 9 9 9 9 9 10 9 9 9 9 9 8 8 9 9 8 9 9 8 8 8
9 9 9 9 9 9 9 10 9 9 9 9 9 9 8 8 8 8 8 8 8 8
10 10 10 9 10 9 9 10 10 9 9 9 9 8 8 8 9 9 8 8 9 9
10 10 10 10 10 10 10 10 10 10 10 10 9 9 9 9 10 10 10 10 9 9
11 11 11 11 11 11 11 11 11 11 11 11 9 7 7 7 10 10 10 10 10 11
12 12 12 12 12 12 12 12 12 12 11 11 11 8 7 7 10 11 11 11 11 11
13 13 13 13 12 12 12 12 12 12 12 12 11 8 8 8 10 11 11 11 11 12
14 14 14 13 13 13 12 12 12 12 12 12 12 9 9 9 11 11 11 10 11 12
15 15 15 14 14 13 13 13 12 12 12 12 12 10 9 9 11 11 10 10 11 10
16 16 15 15 15 15 14 14 14 13 13 13 12 12 9 9 10 11 11 10 11 12